COSMOS 2251 DEB, 34472

Orbit data source: Space-Track

COSMOS 2251 DEB, 34472 is space debris in LEO originally from a launch on Wed, 16 Jun 1993 UTC launched from the Plesetsk Missile And Space Complex (PKMTR). The debris from Iridium 33, an American commercial communications satellite, has been tracked extensively since its accidental collision with the defunct Russian satellite Cosmos 2251 in 2009. This event, occurring at high speed in low Earth orbit (LEO), generated thousands of pieces of space debris, significantly increasing the risk of further collisions. The Iridium 33 debris cloud has impacted space traffic management and orbital debris mitigation strategies, making it a subject of ongoing study in space situational awareness.

Loading next visibility...
Identifier
34472, 1993-036TR
Orbit
LEO
Country
Flag of CISCIS
Related business
Manufacturer
Unknown
Mission
Spacecraft
Bus & Motor
Unknown
Mass
Unknown
Launch date (UTC)
1993-06-16 (33 years ago)
Launch vehicle
Unknown
Launch site
Plesetsk Missile And Space Complex (PKMTR)
Object type
Payload
Rocket body
Debris
Shape & HBR
Unknown shape, 0.1 m
Radar Cross Section
Medium (>0.1 m² and <1 m²)

Expand to show TLE details & history
Last TLE update: 1 day ago

TLE from 1 day ago
0 COSMOS 2251 DEB
1 34472U 93036TR  26227.95226124  .00000687  00000-0  53792-3 0  9991
2 34472  74.0815  52.9437 0330457 126.4788 236.7265 13.70931698871009
Epoch: 2026-08-15T22:51Z
TLE epoch observation values (Epoch: 2026-08-15T22:51:15.371Z)
Latitude
-0.00007°
Longitude
105.77388°
Altitude
1,137.967 km
Speed
7.215 km/s
True Right ascension
03h 31m 46s
True Declination
0° 00' 00"
Sunlit
Object was in daylight at epoch
Visualization orbit readout
Latitude
Unknown
Longitude
Unknown
Altitude
Unknown
Speed
Unknown
Apparent Right ascension
Unknown
Apparent Declination
Unknown
Sunlit
N/A
Visualization observer readout
Local Sidereal Time
16:57:00
Azimuth
Unknown
Elevation
Unknown
Doppler factor
Unknown
Orbital elements
Apogee altitude
1,237.532 km
Perigee altitude
750.302 km
Semi-major axis
7,372.054 km
Eccentricity
0.03305
Inclination
74.0815°
RAAN
52.9437°
Arg. of periapsis
126.4788°
True anomaly
233.63226°
Mean anomaly
236.7265°
Eccentric anomaly
235.17228°
Mean motion
3.42894 °/min
Orbital period
104.99 mins
BSTAR
0.00053792
Loading maneuver chart data...
Computing Atmospheric mass density...

Documentation

Showing up to 5 results
|